GW7358 Weather Reports


time (UTC)temp
C
wind
direction
speed
KPH
gust
KPH
rain 1hr
cm
rain 24hr
cm
rain mn
cm
humidity
%
barometer
mb
20260508003934 19 25 1.6 4.8 0.00 0.00 0.00 37 1018.0
20260508003431 19 60 3.2 4.8 0.00 0.00 0.00 37 1017.9
20260508002928 19 56 0.0 4.8 0.00 0.00 0.00 38 1018.0
20260508002424 19 48 3.2 3.2 0.00 0.00 0.00 39 1018.1
20260508001920 18 183 1.6 3.2 0.00 0.00 0.00 40 1018.1
20260508001417 18 192 3.2 3.2 0.00 0.00 0.00 40 1018.2
20260508000913 18 171 1.6 3.2 0.00 0.00 0.00 40 1018.3
20260508000412 18 188 3.2 3.2 0.00 0.00 0.00 40 1018.5
20260507235906 18 2 1.6 1.6 0.00 0.00 0.00 42 1018.6
20260507235404 18 193 0.0 3.2 0.00 0.00 0.00 41 1018.6
20260507234900 18 202 3.2 3.2 0.00 0.00 0.00 40 1018.7
20260507234359 18 191 1.6 3.2 0.00 0.00 0.00 41 1018.6
20260507233853 18 193 3.2 3.2 0.00 0.00 0.00 41 1018.8
20260507233351 18 216 0.0 3.2 0.00 0.00 0.00 41 1018.9
20260507232849 18 190 1.6 3.2 0.00 0.00 0.00 40 1019.1
20260507232345 18 263 3.2 4.8 0.00 0.00 0.00 39 1019.0
20260507231843 18 61 0.0 1.6 0.00 0.00 0.00 40 1019.1
20260507231339 18 191 0.0 3.2 0.00 0.00 0.00 40 1019.1
20260507230835 18 207 0.0 1.6 0.00 0.00 0.00 40 1019.3
20260507230333 18 351 3.2 3.2 0.00 0.00 0.00 40 1019.4
20260507225833 17 181 3.2 3.2 0.00 0.00 0.00 41 1019.5
20260507225329 18 209 1.6 1.6 0.00 0.00 0.00 40 1019.5
20260507224825 17 156 0.0 3.2 0.00 0.00 0.00 40 1019.5
20260507224322 17 165 0.0 1.6 0.00 0.00 0.00 39 1019.7
20260507223818 17 109 0.0 3.2 0.00 0.00 0.00 40 1019.7
20260507223314 17 183 1.6 3.2 0.00 0.00 0.00 38 1019.7
20260507222812 17 202 1.6 4.8 0.00 0.00 0.00 39 1020.0
20260507222308 17 77 0.0 3.2 0.00 0.00 0.00 41 1019.9
20260507221805 17 144 1.6 3.2 0.00 0.00 0.00 40 1019.7
20260507221302 16 178 3.2 3.2 0.00 0.00 0.00 42 1020.0
20260507220757 16 190 3.2 3.2 0.00 0.00 0.00 47 1020.1
20260507220256 16 140 0.0 3.2 0.00 0.00 0.00 48 1020.2
20260507215752 16 173 0.0 0.0 0.00 0.00 0.00 48 1020.4
20260507215250 16 181 1.6 1.6 0.00 0.00 0.00 48 1020.5
20260507214747 17 327 0.0 0.0 0.00 0.00 0.00 48 1020.2
20260507214244 17 162 0.0 1.6 0.00 0.00 0.00 47 1020.1
20260507213739 18 200 1.6 3.2 0.00 0.00 0.00 46 1020.2
20260507213236 18 215 1.6 3.2 0.00 0.00 0.00 45 1020.0
20260507212732 18 183 0.0 3.2 0.00 0.00 0.00 43 1019.8
20260507212229 18 44 0.0 1.6 0.00 0.00 0.00 42 1019.6
20260507211726 18 190 3.2 3.2 0.00 0.00 0.00 40 1019.6
20260507211222 18 184 1.6 3.2 0.00 0.00 0.00 42 1019.5
20260507210719 18 177 1.6 3.2 0.00 0.00 0.00 42 1019.8
20260507210216 18 202 3.2 3.2 0.00 0.00 0.00 42 1020.0
20260507205712 18 145 1.6 3.2 0.00 0.00 0.00 43 1020.1
20260507205209 18 188 0.0 3.2 0.00 0.00 0.00 44 1020.5
20260507204705 18 201 1.6 3.2 0.00 0.00 0.00 48 1020.5
20260507204203 18 191 0.0 3.2 0.00 0.00 0.00 47 1020.5
20260507203701 18 183 0.0 3.2 0.00 0.00 0.00 48 1020.8
20260507203158 18 180 0.0 3.2 0.00 0.00 0.00 48 1020.9
20260507202653 18 183 1.6 3.2 0.00 0.00 0.00 46 1020.6
20260507202150 18 205 1.6 3.2 0.00 0.00 0.00 45 1020.5
20260507201645 18 209 3.2 3.2 0.00 0.00 0.00 45 1020.6
20260507201142 18 180 3.2 3.2 0.00 0.00 0.00 44 1020.6
20260507200638 18 187 0.0 3.2 0.00 0.00 0.00 44 1020.6
20260507200135 18 206 1.6 3.2 0.00 0.00 0.00 44 1020.6
20260507195631 18 278 0.0 3.2 0.00 0.00 0.00 43 1020.6
20260507195129 18 332 3.2 6.4 0.00 0.00 0.00 46 1020.6
20260507194626 18 195 1.6 3.2 0.00 0.00 0.00 46 1020.2
20260507194120 18 182 0.0 1.6 0.00 0.00 0.00 45 1020.3
20260507193618 18 186 0.0 3.2 0.00 0.00 0.00 45 1020.5
20260507193115 18 180 0.0 3.2 0.00 0.00 0.00 45 1020.4
20260507192611 18 202 0.0 3.2 0.00 0.00 0.00 44 1020.4
20260507192108 18 184 1.6 3.2 0.00 0.00 0.00 44 1020.3
20260507191603 18 157 0.0 3.2 0.00 0.00 0.00 44 1020.3
20260507191101 18 158 0.0 3.2 0.00 0.00 0.00 44 1020.2
20260507190558 18 172 0.0 4.8 0.00 0.00 0.00 44 1020.1
20260507190057 18 165 1.6 3.2 0.00 0.00 0.00 44 1020.1
20260507185555 18 171 0.0 3.2 0.00 0.00 0.00 45 1020.0
20260507185051 18 125 0.0 3.2 0.00 0.00 0.00 44 1020.0
20260507184549 18 183 0.0 4.8 0.00 0.00 0.00 43 1019.9
20260507184047 18 170 3.2 4.8 0.00 0.00 0.00 43 1019.6
20260507183542 18 190 0.0 3.2 0.00 0.00 0.00 44 1019.5
20260507183040 18 66 1.6 3.2 0.00 0.00 0.00 44 1019.7
20260507182536 18 132 0.0 3.2 0.00 0.00 0.00 43 1019.4
20260507182032 18 146 1.6 3.2 0.00 0.00 0.00 44 1019.4
20260507181529 18 258 3.2 4.8 0.00 0.00 0.00 43 1019.6
20260507181025 18 180 0.0 4.8 0.00 0.00 0.00 43 1019.5
20260507180522 18 187 0.0 3.2 0.00 0.00 0.00 44 1019.9
20260507180019 18 127 0.0 3.2 0.00 0.00 0.00 45 1020.0
20260507175515 18 181 1.6 1.6 0.00 0.00 0.00 44 1020.0
20260507175013 18 190 3.2 3.2 0.00 0.00 0.00 44 1020.0
20260507174510 19 193 0.0 3.2 0.00 0.00 0.00 44 1019.7
20260507174007 19 189 3.2 3.2 0.00 0.00 0.00 45 1019.8
20260507173504 19 188 3.2 3.2 0.00 0.00 0.00 45 1019.5
20260507173001 19 194 1.6 3.2 0.00 0.00 0.00 46 1019.6
20260507172457 19 180 3.2 3.2 0.00 0.00 0.00 46 1019.6
20260507171954 19 191 3.2 3.2 0.00 0.00 0.00 47 1019.6
20260507171449 20 186 3.2 3.2 0.00 0.00 0.00 48 1019.6
20260507170947 20 144 0.0 4.8 0.00 0.00 0.00 47 1019.6
20260507170444 20 194 3.2 3.2 0.00 0.00 0.00 47 1019.6
20260507165940 20 176 1.6 3.2 0.00 0.00 0.00 45 1019.6
20260507165436 20 202 1.6 3.2 0.00 0.00 0.00 44 1019.4
20260507164932 20 197 0.0 3.2 0.00 0.00 0.00 45 1019.4
20260507164429 21 193 0.0 3.2 0.00 0.00 0.00 44 1019.4
20260507163926 21 224 0.0 3.2 0.00 0.00 0.00 43 1019.1
20260507163424 21 204 0.0 3.2 0.00 0.00 0.00 44 1019.2
20260507162920 21 190 1.6 3.2 0.00 0.00 0.00 43 1019.2
20260507162415 21 149 0.0 1.6 0.00 0.00 0.00 43 1019.3
20260507161913 21 198 1.6 1.6 0.00 0.00 0.00 41 1019.2
20260507161409 21 230 0.0 0.0 0.00 0.00 0.00 38 1019.3
20260507160906 21 198 3.2 4.8 0.00 0.00 0.00 41 1019.5
20260507160401 21 214 6.4 6.4 0.00 0.00 0.00 40 1019.3
20260507155858 21 214 3.2 4.8 0.00 0.00 0.00 38 1019.3
20260507155354 21 216 4.8 4.8 0.00 0.00 0.00 38 1019.3
20260507154851 21 218 4.8 4.8 0.00 0.00 0.00 40 1019.1
20260507154348 21 242 3.2 4.8 0.00 0.00 0.00 39 1019.2
20260507153845 21 241 3.2 4.8 0.00 0.00 0.00 44 1019.2
20260507153341 22 228 4.8 4.8 0.00 0.00 0.00 47 1019.2
20260507152838 22 233 4.8 6.4 0.00 0.00 0.00 48 1018.9
20260507152334 22 215 3.2 8.0 0.00 0.00 0.00 46 1019.0
20260507151831 22 221 6.4 9.7 0.00 0.00 0.00 50 1019.2
20260507151327 22 208 6.4 9.7 0.00 0.00 0.00 42 1019.1
20260507150824 23 215 3.2 4.8 0.00 0.00 0.00 34 1019.4
20260507150320 23 185 0.0 3.2 0.00 0.00 0.00 35 1019.3
20260507145817 23 197 0.0 3.2 0.00 0.00 0.00 35 1019.5
20260507145313 22 236 0.0 3.2 0.00 0.00 0.00 35 1019.7
20260507144811 22 193 3.2 3.2 0.00 0.00 0.00 36 1019.7
20260507144307 22 196 1.6 4.8 0.00 0.00 0.00 39 1019.9
20260507143804 22 89 1.6 1.6 0.00 0.00 0.00 41 1020.1
20260507143302 22 210 0.0 4.8 0.00 0.00 0.00 39 1020.3
20260507142757 21 292 0.0 1.6 0.00 0.00 0.00 36 1020.2
20260507142254 21 187 1.6 3.2 0.00 0.00 0.00 39 1020.4
20260507141750 21 193 3.2 4.8 0.00 0.00 0.00 44 1020.2
20260507141248 21 231 3.2 4.8 0.00 0.00 0.00 49 1020.1
20260507140743 21 246 3.2 4.8 0.00 0.00 0.00 48 1020.2
20260507140241 21 201 3.2 4.8 0.00 0.00 0.00 48 1020.2
20260507135738 21 248 3.2 6.4 0.00 0.00 0.00 48 1019.8
20260507135235 21 228 8.0 9.7 0.00 0.00 0.00 48 1019.8
20260507134731 22 214 4.8 8.0 0.00 0.00 0.00 47 1020.0
20260507134228 22 218 4.8 8.0 0.00 0.00 0.00 41 1019.7
20260507133724 22 230 8.0 8.0 0.00 0.00 0.00 43 1019.7
20260507133221 22 233 6.4 9.7 0.00 0.00 0.00 48 1019.7
20260507132718 22 213 9.7 9.7 0.00 0.00 0.00 55 1019.6
20260507132215 22 222 8.0 9.7 0.00 0.00 0.00 55 1019.6
20260507131712 22 224 6.4 9.7 0.00 0.00 0.00 54 1019.7
20260507131209 22 206 6.4 8.0 0.00 0.00 0.00 51 1019.7
20260507130706 22 216 9.7 9.7 0.00 0.00 0.00 47 1019.8
20260507130204 22 202 6.4 11.3 0.00 0.00 0.00 50 1019.9
20260507125702 22 212 6.4 9.7 0.00 0.00 0.00 56 1019.9
20260507125159 22 224 8.0 9.7 0.00 0.00 0.00 55 1020.1
20260507124655 23 205 6.4 12.9 0.00 0.00 0.00 54 1020.3
20260507124153 23 223 8.0 11.3 0.00 0.00 0.00 52 1020.1
20260507123651 23 221 6.4 12.9 0.00 0.00 0.00 51 1020.2
20260507123148 22 223 9.7 11.3 0.00 0.00 0.00 50 1020.3
20260507122643 22 187 9.7 9.7 0.00 0.00 0.00 50 1020.4
20260507122139 23 208 4.8 9.7 0.00 0.00 0.00 48 1020.7
20260507121635 23 229 8.0 12.9 0.00 0.00 0.00 49 1020.5
20260507121131 23 213 6.4 11.3 0.00 0.00 0.00 48 1020.7
20260507120628 23 203 6.4 11.3 0.00 0.00 0.00 47 1020.7
20260507120124 22 207 6.4 11.3 0.00 0.00 0.00 51 1020.7
20260507115621 22 217 9.7 11.3 0.00 0.00 0.00 50 1020.6
20260507115117 23 205 8.0 11.3 0.00 0.00 0.00 50 1020.4
20260507114613 23 227 8.0 14.5 0.00 0.00 0.00 54 1020.4
20260507114110 23 199 9.7 12.9 0.00 0.00 0.00 52 1020.4
20260507113607 23 214 8.0 11.3 0.00 0.00 0.00 53 1020.2
20260507113104 23 228 6.4 11.3 0.00 0.00 0.00 52 1020.0
20260507112602 23 229 6.4 9.7 0.00 0.00 0.00 54 1020.2
20260507112059 22 209 6.4 6.4 0.00 0.00 0.00 53 1020.4
20260507111555 22 229 6.4 9.7 0.00 0.00 0.00 55 1020.7
20260507111052 22 239 3.2 8.0 0.00 0.00 0.00 57 1020.8
20260507110548 22 226 6.4 8.0 0.00 0.00 0.00 60 1020.9
20260507110045 22 231 4.8 8.0 0.00 0.00 0.00 59 1020.8
20260507105542 22 242 4.8 8.0 0.00 0.00 0.00 57 1020.5
20260507105038 23 240 6.4 8.0 0.00 0.00 0.00 56 1020.4
20260507104535 22 250 3.2 8.0 0.00 0.00 0.00 60 1020.5
20260507104032 22 217 6.4 9.7 0.00 0.00 0.00 61 1020.3
20260507103528 22 236 6.4 6.4 0.00 0.00 0.00 61 1020.5
20260507103025 22 207 6.4 6.4 0.00 0.00 0.00 62 1020.6
20260507102522 22 230 6.4 8.0 0.00 0.00 0.00 62 1020.6
20260507102018 22 230 6.4 8.0 0.00 0.00 0.00 61 1020.5
20260507101513 22 248 6.4 8.0 0.00 0.00 0.00 62 1020.5
20260507101010 21 225 6.4 8.0 0.00 0.00 0.00 63 1020.6
20260507100507 21 233 6.4 8.0 0.00 0.00 0.00 65 1020.4
20260507100005 21 234 6.4 8.0 0.00 0.00 0.00 64 1020.4
20260507095503 21 207 6.4 9.7 0.00 0.00 0.00 66 1020.5
20260507094959 21 231 11.3 14.5 0.00 0.00 0.00 64 1020.3
20260507094455 22 218 8.0 12.9 0.00 0.00 0.00 63 1020.2
20260507093953 22 218 9.7 9.7 0.00 0.00 0.00 60 1020.2
20260507093450 22 214 6.4 9.7 0.00 0.00 0.00 63 1020.5
20260507092948 21 209 8.0 9.7 0.00 0.00 0.00 62 1020.5
20260507092444 21 206 8.0 8.0 0.00 0.00 0.00 62 1020.6
20260507091941 22 198 8.0 11.3 0.00 0.00 0.00 62 1020.6
20260507091438 22 203 8.0 11.3 0.00 0.00 0.00 65 1020.6
20260507090934 21 215 4.8 9.7 0.00 0.00 0.00 65 1020.2
20260507090430 21 227 6.4 9.7 0.00 0.00 0.00 65 1020.4
20260507085926 21 217 9.7 11.3 0.00 0.00 0.00 65 1020.3
20260507085424 21 215 9.7 9.7 0.00 0.00 0.00 65 1020.4
20260507084921 21 231 11.3 12.9 0.00 0.00 0.00 67 1020.3
20260507084417 21 223 8.0 11.3 0.00 0.00 0.00 67 1020.4
20260507083915 21 216 8.0 9.7 0.00 0.00 0.00 65 1020.1
20260507083411 21 244 6.4 6.4 0.00 0.00 0.00 68 1020.2
20260507082907 21 214 6.4 8.0 0.00 0.00 0.00 68 1020.2
20260507082403 21 218 8.0 9.7 0.00 0.00 0.00 66 1020.2
20260507081901 21 228 8.0 9.7 0.00 0.00 0.00 66 1020.3
20260507081356 21 206 4.8 8.0 0.00 0.00 0.00 67 1020.2
20260507080853 20 211 6.4 9.7 0.00 0.00 0.00 68 1020.0
20260507080349 21 221 6.4 11.3 0.00 0.00 0.00 67 1020.0
20260507075845 20 243 3.2 8.0 0.00 0.00 0.00 67 1019.8
20260507075341 20 219 6.4 9.7 0.00 0.00 0.00 64 1019.9
20260507074838 20 214 8.0 9.7 0.00 0.00 0.00 64 1019.9
20260507074335 20 214 6.4 9.7 0.00 0.00 0.00 64 1019.7
20260507073832 20 229 9.7 14.5 0.00 0.00 0.00 66 1019.8
20260507073329 20 233 6.4 9.7 0.00 0.00 0.00 66 1019.7
20260507072826 20 223 6.4 9.7 0.00 0.00 0.00 65 1019.9
20260507072323 20 234 3.2 6.4 0.00 0.00 0.00 64 1020.1
20260507071821 20 239 3.2 6.4 0.00 0.00 0.00 65 1020.0
20260507071318 20 195 6.4 9.7 0.00 0.00 0.00 64 1020.1
20260507070814 20 219 4.8 4.8 0.00 0.00 0.00 64 1019.9
20260507070312 20 242 4.8 6.4 0.00 0.00 0.00 64 1019.9
20260507065808 20 218 4.8 6.4 0.00 0.00 0.00 64 1019.8
20260507065306 20 218 6.4 8.0 0.00 0.00 0.00 65 1019.9
20260507064802 20 230 6.4 8.0 0.00 0.00 0.00 64 1019.7
20260507064301 20 248 4.8 6.4 0.00 0.00 0.00 63 1019.8
20260507063758 20 229 4.8 6.4 0.00 0.00 0.00 63 1019.8
20260507063255 19 227 4.8 6.4 0.00 0.00 0.00 64 1019.9
20260507062751 19 243 4.8 6.4 0.00 0.00 0.00 63 1019.6
20260507062249 20 221 4.8 6.4 0.00 0.00 0.00 63 1019.7
20260507061747 20 232 9.7 9.7 0.00 0.00 0.00 60 1019.7
20260507061244 19 220 6.4 8.0 0.00 0.00 0.00 60 1019.6
20260507060743 19 227 4.8 8.0 0.00 0.00 0.00 58 1019.4
20260507060239 19 208 4.8 6.4 0.00 0.00 0.00 57 1019.4
20260507055735 19 220 6.4 8.0 0.00 0.00 0.00 58 1019.4
20260507055230 19 195 4.8 6.4 0.00 0.00 0.00 57 1019.3
20260507054726 19 205 4.8 6.4 0.00 0.00 0.00 56 1019.2
20260507054224 18 201 3.2 4.8 0.00 0.00 0.00 53 1019.2
20260507053721 18 214 3.2 4.8 0.00 0.00 0.00 60 1019.4
20260507053219 18 109 0.0 3.2 0.00 0.00 0.00 58 1019.2
20260507052718 17 226 3.2 4.8 0.00 0.00 0.00 58 1019.2
20260507052213 17 197 3.2 4.8 0.00 0.00 0.00 54 1019.2
20260507051712 16 281 1.6 3.2 0.00 0.00 0.00 57 1019.3
20260507051208 16 203 0.0 3.2 0.00 0.00 0.00 60 1019.2
20260507050705 15 217 0.0 3.2 0.00 0.00 0.00 61 1019.3
20260507050202 15 207 0.0 3.2 0.00 0.00 0.00 61 1019.1
20260507045658 15 191 3.2 3.2 0.00 0.00 0.00 63 1019.2
20260507045156 15 191 0.0 3.2 0.00 0.00 0.00 62 1019.1
20260507044652 15 185 3.2 3.2 0.00 0.00 0.00 62 1019.2
20260507044148 15 198 0.0 3.2 0.00 0.00 0.00 62 1019.0
20260507043644 14 182 0.0 3.2 0.00 0.00 0.00 62 1018.8
20260507043142 14 208 0.0 3.2 0.00 0.00 0.00 61 1018.7
20260507042638 14 189 1.6 3.2 0.00 0.00 0.00 60 1018.3
20260507042134 14 117 0.0 3.2 0.00 0.00 0.00 60 1018.3
20260507041631 14 187 0.0 3.2 0.00 0.00 0.00 59 1018.4
20260507041127 14 185 3.2 3.2 0.00 0.00 0.00 58 1018.3
20260507040624 14 190 1.6 3.2 0.00 0.00 0.00 58 1018.2
20260507040120 13 185 0.0 3.2 0.00 0.00 0.00 60 1018.0
20260507035616 13 202 3.2 3.2 0.00 0.00 0.00 59 1018.1
20260507035113 13 186 1.6 3.2 0.00 0.00 0.00 59 1018.1
20260507034610 13 193 3.2 3.2 0.00 0.00 0.00 59 1018.0
20260507034107 13 186 1.6 3.2 0.00 0.00 0.00 60 1017.8
20260507033605 13 192 0.0 3.2 0.00 0.00 0.00 62 1017.7
20260507033102 13 210 0.0 3.2 0.00 0.00 0.00 62 1017.8
20260507032600 13 201 3.2 3.2 0.00 0.00 0.00 62 1017.7
20260507032055 13 147 0.0 3.2 0.00 0.00 0.00 60 1017.5
20260507031552 14 179 0.0 3.2 0.00 0.00 0.00 60 1017.5
20260507031049 13 185 1.6 3.2 0.00 0.00 0.00 59 1017.5
20260507030545 14 345 0.0 1.6 0.00 0.00 0.00 59 1017.5
20260507030044 13 208 4.8 4.8 0.00 0.00 0.00 58 1017.5
20260507025540 13 184 3.2 4.8 0.00 0.00 0.00 62 1017.5
20260507025037 13 208 0.0 1.6 0.00 0.00 0.00 68 1017.6
20260507024536 13 168 0.0 3.2 0.00 0.00 0.00 69 1017.9
20260507024032 13 152 0.0 3.2 0.00 0.00 0.00 70 1017.9
20260507023528 13 188 1.6 3.2 0.00 0.00 0.00 71 1018.0
20260507023026 13 37 0.0 4.8 0.00 0.00 0.00 72 1018.1
20260507022522 13 173 1.6 3.2 0.00 0.00 0.00 71 1018.2
20260507022018 13 85 0.0 3.2 0.00 0.00 0.00 71 1018.1
20260507021514 13 181 1.6 3.2 0.00 0.00 0.00 69 1018.3
20260507021011 13 232 0.0 3.2 0.00 0.00 0.00 68 1017.9
20260507020508 13 220 0.0 3.2 0.00 0.00 0.00 67 1017.7
20260507020004 13 104 0.0 3.2 0.00 0.00 0.00 66 1017.6
20260507015503 13 161 0.0 3.2 0.00 0.00 0.00 66 1017.6
20260507015000 13 155 0.0 3.2 0.00 0.00 0.00 68 1017.7
20260507014456 13 191 0.0 3.2 0.00 0.00 0.00 68 1017.8
20260507013952 13 151 0.0 3.2 0.00 0.00 0.00 68 1017.8
20260507013449 13 168 0.0 3.2 0.00 0.00 0.00 67 1017.8
20260507012947 14 182 3.2 4.8 0.00 0.00 0.00 65 1017.8
20260507012443 14 178 1.6 3.2 0.00 0.00 0.00 66 1017.7
20260507011940 14 179 1.6 4.8 0.00 0.00 0.00 67 1017.7
20260507011437 14 176 0.0 1.6 0.00 0.00 0.00 69 1017.7
20260507010937 13 175 0.0 3.2 0.00 0.00 0.00 70 1017.6
20260507010433 13 162 0.0 3.2 0.00 0.00 0.00 71 1017.6
20260507005930 13 174 0.0 3.2 0.00 0.00 0.00 70 1017.6
20260507005427 13 193 0.0 3.2 0.00 0.00 0.00 70 1017.9
20260507004923 13 191 1.6 4.8 0.00 0.00 0.00 69 1018.0
20260507004420 14 136 0.0 3.2 0.00 0.00 0.00 68 1018.0